| time (UTC) | temp F | wind direction | speed MPH | gust MPH | rain 1hr in | rain 24hr in | rain mn in | humidity % | barometer mb |
| 20260505184550 | 46 | 187 | 0.0 | 2.0 | 0.00 | 0.00 | 0.00 | 56 | 1011.4 |
| 20260505183049 | 47 | 173 | 0.0 | 6.0 | 0.00 | 0.00 | 0.00 | 53 | 1011.3 |
| 20260505181549 | 49 | 160 | 3.0 | 8.0 | 0.00 | 0.00 | 0.00 | 48 | 1011.3 |
| 20260505180050 | 49 | 187 | 2.0 | 8.0 | 0.00 | 0.00 | 0.00 | 46 | 1011.3 |
| 20260505174546 | 49 | 160 | 7.0 | 11.0 | 0.00 | 0.00 | 0.00 | 45 | 1011.1 |
| 20260505173043 | 50 | 200 | 6.0 | 11.0 | 0.00 | 0.00 | 0.00 | 43 | 1011.1 |
| 20260505171545 | 51 | 189 | 3.0 | 12.0 | 0.00 | 0.00 | 0.00 | 42 | 1011.0 |
| 20260505164542 | 52 | 212 | 6.0 | 11.0 | 0.00 | 0.00 | 0.00 | 38 | 1010.9 |
| 20260505163041 | 52 | 174 | 6.0 | 15.0 | 0.00 | 0.00 | 0.00 | 38 | 1010.9 |
| 20260505161538 | 52 | 215 | 9.0 | 14.0 | 0.00 | 0.00 | 0.00 | 37 | 1010.9 |
| 20260505153036 | 53 | 233 | 1.0 | 13.0 | 0.00 | 0.00 | 0.00 | 29 | 1010.8 |
| 20260505151545 | 52 | 195 | 8.0 | 15.0 | 0.00 | 0.00 | 0.00 | 31 | 1010.9 |
| 20260505124524 | 52 | 151 | 8.0 | 14.0 | 0.00 | 0.00 | 0.00 | 34 | 1010.9 |
| 20260505123022 | 51 | 177 | 7.0 | 17.0 | 0.00 | 0.00 | 0.00 | 34 | 1011.0 |
| 20260505121521 | 52 | 224 | 5.0 | 16.0 | 0.00 | 0.00 | 0.00 | 35 | 1011.0 |
| 20260505120020 | 52 | 217 | 4.0 | 15.0 | 0.00 | 0.00 | 0.00 | 35 | 1010.9 |
| 20260505114520 | 51 | 205 | 7.0 | 16.0 | 0.00 | 0.00 | 0.00 | 32 | 1010.9 |
| 20260505113020 | 51 | 168 | 9.0 | 17.0 | 0.00 | 0.00 | 0.00 | 35 | 1010.9 |
| 20260505111515 | 50 | 257 | 5.0 | 13.0 | 0.00 | 0.00 | 0.00 | 36 | 1010.8 |
| 20260505101513 | 51 | 254 | 3.0 | 15.0 | 0.00 | 0.00 | 0.00 | 39 | 1010.8 |
| 20260505100009 | 50 | 239 | 7.0 | 16.0 | 0.00 | 0.00 | 0.00 | 34 | 1010.7 |
| 20260505094507 | 50 | 241 | 7.0 | 16.0 | 0.00 | 0.00 | 0.00 | 33 | 1010.7 |
| 20260505093105 | 50 | 140 | 5.0 | 11.0 | 0.00 | 0.00 | 0.00 | 38 | 1010.6 |
| 20260505091503 | 50 | 174 | 4.0 | 12.0 | 0.00 | 0.00 | 0.00 | 38 | 1010.5 |
| 20260505090001 | 49 | 216 | 5.0 | 12.0 | 0.00 | 0.00 | 0.00 | 36 | 1010.4 |
| 20260505084600 | 49 | 309 | 6.0 | 16.0 | 0.00 | 0.00 | 0.00 | 38 | 1010.3 |
| 20260505083103 | 49 | 238 | 5.0 | 11.0 | 0.00 | 0.00 | 0.00 | 38 | 1010.2 |
| 20260505081602 | 49 | 45 | 1.0 | 9.0 | 0.00 | 0.00 | 0.00 | 42 | 1010.1 |
| 20260505080056 | 49 | 164 | 0.0 | 6.0 | 0.00 | 0.00 | 0.00 | 40 | 1010.1 |
| 20260505074555 | 48 | 205 | 3.0 | 8.0 | 0.00 | 0.00 | 0.00 | 43 | 1010.1 |
| 20260505073056 | 47 | 222 | 2.0 | 9.0 | 0.00 | 0.00 | 0.00 | 42 | 1010.1 |
| 20260505071553 | 46 | 214 | 2.0 | 13.0 | 0.00 | 0.00 | 0.00 | 46 | 1010.2 |
| 20260505070050 | 46 | 206 | 1.0 | 7.0 | 0.00 | 0.00 | 0.00 | 47 | 1010.1 |
| 20260505064549 | 46 | 217 | 1.0 | 8.0 | 0.00 | 0.00 | 0.00 | 47 | 1010.0 |
| 20260505063048 | 45 | 218 | 2.0 | 10.0 | 0.00 | 0.00 | 0.00 | 49 | 1010.0 |
| 20260505061549 | 45 | 308 | 2.0 | 8.0 | 0.00 | 0.00 | 0.00 | 51 | 1010.0 |
| 20260505060048 | 44 | 285 | 4.0 | 9.0 | 0.00 | 0.00 | 0.00 | 51 | 1010.1 |
| 20260505054546 | 44 | 238 | 1.0 | 7.0 | 0.00 | 0.00 | 0.00 | 55 | 1010.0 |
| 20260505053048 | 43 | 186 | 0.0 | 6.0 | 0.00 | 0.00 | 0.00 | 59 | 1009.8 |
| 20260505051543 | 41 | 163 | 2.0 | 4.0 | 0.00 | 0.00 | 0.00 | 62 | 1009.7 |
| 20260505041538 | 33 | 171 | 0.0 | 0.0 | 0.00 | 0.00 | 0.00 | 46 | 1009.3 |
| 20260505040035 | 33 | 171 | 0.0 | 0.0 | 0.00 | 0.00 | 0.00 | 52 | 1009.3 |
| 20260505034534 | 33 | 171 | 0.0 | 0.0 | 0.00 | 0.00 | 0.00 | 63 | 1009.1 |
| 20260505033039 | 34 | 171 | 0.0 | 0.0 | 0.00 | 0.00 | 0.00 | 69 | 1009.0 |
| 20260505031524 | 35 | 171 | 0.0 | 0.0 | 0.00 | 0.00 | 0.00 | 71 | 1008.9 |
| 20260505030026 | 36 | 171 | 0.0 | 0.0 | 0.00 | 0.00 | 0.00 | 72 | 1008.7 |
| 20260505024517 | 37 | 171 | 0.0 | 0.0 | 0.00 | 0.00 | 0.00 | 72 | 1008.6 |
| 20260505023016 | 38 | 269 | 0.0 | 3.0 | 0.00 | 0.00 | 0.00 | 71 | 1008.6 |
| 20260505021512 | 39 | 256 | 0.0 | 3.0 | 0.00 | 0.00 | 0.00 | 72 | 1008.6 |
| 20260505020008 | 41 | 288 | 0.0 | 1.0 | 0.00 | 0.00 | 0.00 | 71 | 1008.4 |
| 20260505014509 | 42 | 207 | 0.0 | 1.0 | 0.00 | 0.00 | 0.00 | 69 | 1008.4 |
| 20260505013002 | 43 | 217 | 0.0 | 4.0 | 0.00 | 0.00 | 0.00 | 68 | 1008.3 |
| 20260505011601 | 44 | 208 | 0.0 | 4.0 | 0.00 | 0.00 | 0.00 | 69 | 1008.2 |
| 20260505010101 | 45 | 229 | 1.0 | 5.0 | 0.00 | 0.00 | 0.00 | 70 | 1008.0 |
| 20260505004558 | 45 | 175 | 2.0 | 7.0 | 0.00 | 0.00 | 0.00 | 70 | 1008.0 |
| 20260505003050 | 46 | 165 | 2.0 | 6.0 | 0.00 | 0.00 | 0.00 | 69 | 1007.9 |
| 20260505001546 | 47 | 200 | 5.0 | 10.0 | 0.00 | 0.00 | 0.00 | 68 | 1007.7 |
| 20260505000046 | 47 | 236 | 6.0 | 12.0 | 0.00 | 0.00 | 0.00 | 63 | 1007.5 |
| 20260504234603 | 47 | 163 | 4.0 | 14.0 | 0.00 | 0.00 | 0.00 | 63 | 1007.5 |
| 20260504233039 | 48 | 155 | 6.0 | 15.0 | 0.00 | 0.00 | 0.00 | 64 | 1007.3 |
| 20260504231549 | 48 | 167 | 9.0 | 16.0 | 0.00 | 0.00 | 0.00 | 65 | 1007.3 |
| 20260504230034 | 48 | 208 | 8.0 | 14.0 | 0.00 | 0.00 | 0.00 | 63 | 1007.2 |
| 20260504224531 | 48 | 219 | 8.0 | 15.0 | 0.00 | 0.00 | 0.00 | 61 | 1007.1 |
| 20260504223027 | 48 | 194 | 5.0 | 11.0 | 0.00 | 0.00 | 0.00 | 61 | 1007.2 |
| 20260504221525 | 48 | 155 | 5.0 | 12.0 | 0.00 | 0.00 | 0.00 | 59 | 1007.0 |
| 20260504220022 | 49 | 141 | 4.0 | 12.0 | 0.00 | 0.00 | 0.00 | 60 | 1006.9 |
| 20260504214519 | 49 | 191 | 6.0 | 13.0 | 0.00 | 0.00 | 0.00 | 61 | 1007.0 |
| 20260504213012 | 49 | 180 | 6.0 | 15.0 | 0.00 | 0.00 | 0.00 | 64 | 1007.0 |
| 20260504211508 | 49 | 221 | 4.0 | 9.0 | 0.00 | 0.00 | 0.00 | 60 | 1006.9 |
| 20260504210003 | 48 | 203 | 4.0 | 10.0 | 0.00 | 0.00 | 0.00 | 57 | 1007.0 |
| 20260504204638 | 48 | 158 | 2.0 | 6.0 | 0.00 | 0.00 | 0.00 | 49 | 1007.0 |
| 20260504203054 | 49 | 169 | 1.0 | 6.0 | 0.00 | 0.00 | 0.00 | 51 | 1007.0 |
| 20260504201550 | 49 | 216 | 3.0 | 7.0 | 0.00 | 0.00 | 0.00 | 52 | 1007.0 |
| 20260504200053 | 49 | 150 | 2.0 | 8.0 | 0.00 | 0.00 | 0.00 | 52 | 1006.9 |
| 20260504194550 | 49 | 176 | 4.0 | 8.0 | 0.00 | 0.00 | 0.00 | 52 | 1007.0 |
| 20260504193039 | 50 | 137 | 3.0 | 15.0 | 0.00 | 0.00 | 0.00 | 54 | 1006.9 |
| 20260504191533 | 50 | 160 | 5.0 | 14.0 | 0.00 | 0.00 | 0.00 | 54 | 1006.9 |
| 20260504190035 | 50 | 164 | 4.0 | 14.0 | 0.00 | 0.00 | 0.00 | 57 | 1006.8 |